CFG6HE EDDH-EDDF

Flight info

Callsign CFG6HE
Flight time 0h 43m
Altitude 30000
Route AMLUH2C AMLUH M852 DENIX DCT RIMET/N0463F310 T157 KOKEB/N0423F230 T157 KERAX KERAX5A
Aircraft A320/M-SDE3FGHIRWY/LB1

Departure

Time 2026-05-07 12:25
Airport Hamburg Helmut Schmidt Airport (EDDH)

Arrival

Time 2026-05-07 13:09
Airport Frankfurt Main Airport (EDDF)
Time Latitude Longitude Altitude Speed Heading
2026-05-07 11:50 53.63121 10.00059 49 ft 0 kts 140°
2026-05-07 12:14 53.63132 10.00044 48 ft 4 kts 146°
2026-05-07 12:15 53.63156 10.00024 48 ft 4 kts 172°
2026-05-07 12:15 53.63178 10.00030 48 ft 3 kts 228°
2026-05-07 12:15 53.63180 10.00033 48 ft 0 kts 231°
2026-05-07 12:18 53.63160 9.99994 47 ft 12 kts 231°
2026-05-07 12:18 53.63098 9.99907 48 ft 11 kts 188°
2026-05-07 12:18 53.63029 9.99934 48 ft 10 kts 160°
2026-05-07 12:19 53.62961 9.99988 47 ft 12 kts 152°
2026-05-07 12:19 53.62875 10.00030 48 ft 14 kts 197°
2026-05-07 12:19 53.62810 9.99969 47 ft 0 kts 210°
2026-05-07 12:20 53.62778 9.99937 44 ft 14 kts 210°
2026-05-07 12:21 53.62693 9.99858 46 ft 13 kts 208°
2026-05-07 12:21 53.62639 9.99752 47 ft 11 kts 252°
2026-05-07 12:21 53.62622 9.99620 47 ft 15 kts 259°
2026-05-07 12:21 53.62600 9.99416 47 ft 18 kts 259°
2026-05-07 12:22 53.62577 9.99216 47 ft 17 kts 259°
2026-05-07 12:22 53.62555 9.99033 47 ft 15 kts 259°
2026-05-07 12:22 53.62536 9.98866 47 ft 14 kts 259°
2026-05-07 12:22 53.62519 9.98715 44 ft 12 kts 259°
2026-05-07 12:23 53.62503 9.98579 45 ft 11 kts 259°
2026-05-07 12:23 53.62489 9.98458 47 ft 10 kts 259°
2026-05-07 12:23 53.62476 9.98334 47 ft 11 kts 261°
2026-05-07 12:23 53.62456 9.98192 47 ft 17 kts 251°
2026-05-07 12:24 53.62363 9.97953 46 ft 31 kts 230°
2026-05-07 12:24 53.62227 9.97682 47 ft 27 kts 230°
2026-05-07 12:24 53.62185 9.97470 46 ft 18 kts 284°
2026-05-07 12:24 53.62282 9.97335 40 ft 19 kts
2026-05-07 12:25 53.62398 9.97525 40 ft 43 kts 50°
2026-05-07 12:25 53.62735 9.98212 43 ft 106 kts 50°
2026-05-07 12:25 53.63323 9.99399 47 ft 155 kts 51°
2026-05-07 12:25 53.64037 10.00791 656 ft 158 kts 50°
2026-05-07 12:26 53.64734 10.02208 1421 ft 156 kts 51°
2026-05-07 12:26 53.65431 10.03645 2010 ft 164 kts 52°
2026-05-07 12:26 53.66203 10.05239 2338 ft 187 kts 51°
2026-05-07 12:26 53.67066 10.07018 2801 ft 203 kts 51°
2026-05-07 12:27 53.67977 10.08884 3494 ft 208 kts 51°
2026-05-07 12:27 53.68901 10.10772 4370 ft 208 kts 52°
2026-05-07 12:27 53.69821 10.12665 5207 ft 209 kts 55°
2026-05-07 12:27 53.70428 10.14886 5920 ft 211 kts 81°
2026-05-07 12:28 53.70348 10.17362 6656 ft 216 kts 107°
2026-05-07 12:28 53.69552 10.19622 7088 ft 240 kts 134°
2026-05-07 12:28 53.68010 10.21026 7452 ft 268 kts 162°
2026-05-07 12:28 53.66169 10.21844 8099 ft 277 kts 162°
2026-05-07 12:29 53.64287 10.22666 8894 ft 282 kts 163°
2026-05-07 12:29 53.62376 10.23505 9715 ft 286 kts 165°
2026-05-07 12:29 53.60434 10.24365 10389 ft 295 kts 165°
2026-05-07 12:29 53.58370 10.25288 10611 ft 318 kts 165°
2026-05-07 12:30 53.56155 10.26285 10802 ft 342 kts 165°
2026-05-07 12:30 53.53784 10.27355 10990 ft 362 kts 164°
2026-05-07 12:30 53.51319 10.28469 11514 ft 370 kts 165°
2026-05-07 12:30 53.48812 10.29597 12157 ft 375 kts 165°
2026-05-07 12:31 53.46279 10.30730 12817 ft 379 kts 165°
2026-05-07 12:31 53.43724 10.31873 13462 ft 383 kts 165°
2026-05-07 12:31 53.41136 10.33036 14104 ft 386 kts 165°
2026-05-07 12:31 53.38533 10.34206 14668 ft 390 kts 165°
2026-05-07 12:32 53.35897 10.35389 15206 ft 394 kts 165°
2026-05-07 12:32 53.33238 10.36582 15826 ft 396 kts 165°
2026-05-07 12:32 53.30567 10.37782 16413 ft 399 kts 166°
2026-05-07 12:32 53.27873 10.38996 16978 ft 403 kts 166°
2026-05-07 12:33 53.22403 10.41454 18124 ft 410 kts 166°
2026-05-07 12:33 53.19643 10.42687 18647 ft 412 kts 166°
2026-05-07 12:33 53.16861 10.43927 19140 ft 415 kts 167°
2026-05-07 12:34 53.14050 10.45018 19616 ft 416 kts 172°
2026-05-07 12:34 53.11162 10.45386 20078 ft 417 kts 181°
2026-05-07 12:34 53.08262 10.45066 20545 ft 418 kts 186°
2026-05-07 12:34 53.05362 10.44658 21016 ft 420 kts 186°
2026-05-07 12:35 53.02443 10.44254 21455 ft 421 kts 186°
2026-05-07 12:35 52.99511 10.43851 21860 ft 424 kts 186°
2026-05-07 12:35 52.96565 10.43451 22263 ft 426 kts 186°
2026-05-07 12:35 52.93598 10.43050 22647 ft 428 kts 186°
2026-05-07 12:36 52.90625 10.42648 23034 ft 430 kts 186°
2026-05-07 12:36 52.87636 10.42244 23450 ft 432 kts 186°
2026-05-07 12:36 52.84638 10.41839 23771 ft 434 kts 186°
2026-05-07 12:36 52.81621 10.41425 24074 ft 436 kts 186°
2026-05-07 12:37 52.78585 10.41006 24357 ft 439 kts 186°
2026-05-07 12:37 52.75539 10.40588 24653 ft 441 kts 186°
2026-05-07 12:37 52.72478 10.40175 24953 ft 442 kts 185°
2026-05-07 12:37 52.69405 10.39762 25222 ft 444 kts 185°
2026-05-07 12:38 52.66317 10.39348 25488 ft 446 kts 185°
2026-05-07 12:38 52.63214 10.38932 25752 ft 448 kts 186°
2026-05-07 12:38 52.60101 10.38518 26019 ft 450 kts 185°
2026-05-07 12:38 52.56978 10.38099 26287 ft 451 kts 185°
2026-05-07 12:39 52.53848 10.37675 26514 ft 453 kts 186°
2026-05-07 12:39 52.50699 10.37251 26731 ft 455 kts 185°
2026-05-07 12:39 52.47548 10.36831 26973 ft 455 kts 185°
2026-05-07 12:39 52.44383 10.36409 27211 ft 456 kts 186°
2026-05-07 12:40 52.41224 10.35986 27544 ft 455 kts 185°
2026-05-07 12:40 52.38066 10.35563 27914 ft 454 kts 185°
2026-05-07 12:40 52.34920 10.35144 28257 ft 454 kts 185°
2026-05-07 12:40 52.31778 10.34728 28596 ft 453 kts 185°
2026-05-07 12:41 52.28661 10.34316 28966 ft 450 kts 185°
2026-05-07 12:41 52.25529 10.33900 29327 ft 448 kts 185°
2026-05-07 12:41 52.22429 10.33485 29681 ft 448 kts 186°
2026-05-07 12:41 52.19323 10.33069 30003 ft 447 kts 186°
2026-05-07 12:42 52.13100 10.32251 30057 ft 449 kts 185°
2026-05-07 12:42 52.06865 10.31437 30057 ft 450 kts 185°
2026-05-07 12:43 52.00646 10.30621 30051 ft 447 kts 185°
2026-05-07 12:43 51.94452 10.29811 30052 ft 447 kts 185°
2026-05-07 12:44 51.88240 10.28999 30043 ft 448 kts 185°
2026-05-07 12:44 51.82029 10.28192 30038 ft 448 kts 184°
2026-05-07 12:45 51.75810 10.27387 30037 ft 449 kts 184°
2026-05-07 12:45 51.69588 10.26587 30030 ft 448 kts 184°
2026-05-07 12:46 51.63369 10.25782 30025 ft 449 kts 184°
2026-05-07 12:46 51.57145 10.24976 30023 ft 449 kts 183°
2026-05-07 12:47 51.50960 10.24191 30008 ft 449 kts 183°
2026-05-07 12:47 51.44725 10.23394 30007 ft 450 kts 183°
2026-05-07 12:48 51.39494 10.22725 30011 ft 450 kts 183°
2026-05-07 12:48 51.33257 10.21934 30013 ft 450 kts 183°
2026-05-07 12:49 51.27002 10.21570 30009 ft 450 kts 179°
2026-05-07 12:49 51.20743 10.21589 30008 ft 450 kts 179°
2026-05-07 12:50 51.14481 10.21592 30006 ft 450 kts 179°
2026-05-07 12:50 51.08217 10.21482 30004 ft 450 kts 180°
2026-05-07 12:51 51.01945 10.21343 29999 ft 451 kts 180°
2026-05-07 12:51 50.95664 10.21219 29997 ft 451 kts 179°
2026-05-07 12:52 50.89395 10.21116 29993 ft 451 kts 180°
2026-05-07 12:52 50.83303 10.19250 29991 ft 452 kts 207°
2026-05-07 12:53 50.78199 10.13554 29975 ft 440 kts 223°
2026-05-07 12:53 50.76240 10.09978 29833 ft 424 kts 237°
2026-05-07 12:53 50.74843 10.05987 29649 ft 406 kts 243°
2026-05-07 12:54 50.73592 10.02070 29028 ft 393 kts 244°
2026-05-07 12:54 50.72406 9.98234 28260 ft 386 kts 244°
2026-05-07 12:54 50.71239 9.94444 27461 ft 381 kts 244°
2026-05-07 12:54 50.70074 9.90716 26649 ft 377 kts 243°
2026-05-07 12:55 50.68902 9.87041 25837 ft 373 kts 242°
2026-05-07 12:55 50.67381 9.83670 24380 ft 386 kts 227°
2026-05-07 12:55 50.65510 9.80514 22687 ft 402 kts 227°
2026-05-07 12:55 50.63556 9.77277 21027 ft 411 kts 227°
2026-05-07 12:56 50.61560 9.73998 19382 ft 419 kts 227°
2026-05-07 12:56 50.59524 9.70663 17601 ft 425 kts 227°
2026-05-07 12:56 50.57476 9.67304 16010 ft 425 kts 227°
2026-05-07 12:56 50.55449 9.63975 14652 ft 419 kts 227°
2026-05-07 12:57 50.53449 9.60685 13361 ft 412 kts 228°
2026-05-07 12:57 50.51513 9.57497 12743 ft 390 kts 228°
2026-05-07 12:57 50.49682 9.54485 12209 ft 379 kts 228°
2026-05-07 12:57 50.47858 9.51482 11609 ft 378 kts 228°
2026-05-07 12:58 50.46064 9.48530 11293 ft 365 kts 228°
2026-05-07 12:58 50.44377 9.45772 11147 ft 336 kts 228°
2026-05-07 12:58 50.42821 9.43233 11024 ft 310 kts 228°
2026-05-07 12:58 50.41366 9.40857 10665 ft 296 kts 228°
2026-05-07 12:59 50.39953 9.38546 10364 ft 292 kts 228°
2026-05-07 12:59 50.38554 9.36254 10110 ft 290 kts 228°
2026-05-07 12:59 50.37165 9.33982 9890 ft 288 kts 228°
2026-05-07 12:59 50.35774 9.31711 9755 ft 288 kts 228°
2026-05-07 13:00 50.34386 9.29447 9624 ft 288 kts 228°
2026-05-07 13:00 50.33001 9.27194 9483 ft 287 kts 228°
2026-05-07 13:00 50.31615 9.24943 9356 ft 287 kts 228°
2026-05-07 13:00 50.30231 9.22701 9222 ft 286 kts 228°
2026-05-07 13:01 50.28856 9.20474 9078 ft 284 kts 227°
2026-05-07 13:01 50.27486 9.18251 8947 ft 283 kts 228°
2026-05-07 13:01 50.26116 9.16028 8536 ft 283 kts 228°
2026-05-07 13:01 50.24747 9.13813 8094 ft 283 kts 228°
2026-05-07 13:02 50.23400 9.11633 7741 ft 281 kts 228°
2026-05-07 13:02 50.22041 9.09436 7327 ft 280 kts 228°
2026-05-07 13:02 50.20670 9.07224 6899 ft 279 kts 228°
2026-05-07 13:02 50.19330 9.05064 6546 ft 276 kts 227°
2026-05-07 13:03 50.17996 9.02915 6120 ft 275 kts 227°
2026-05-07 13:03 50.16666 9.00781 5694 ft 274 kts 227°
2026-05-07 13:03 50.15349 8.98665 5344 ft 269 kts 228°
2026-05-07 13:03 50.14071 8.96616 5164 ft 258 kts 227°
2026-05-07 13:04 50.12854 8.94659 5057 ft 244 kts 231°
2026-05-07 13:04 50.11995 8.92497 4918 ft 230 kts 251°
2026-05-07 13:04 50.11449 8.90175 4643 ft 227 kts 252°
2026-05-07 13:04 50.10915 8.87879 4342 ft 225 kts 251°
2026-05-07 13:05 50.10381 8.85600 4042 ft 223 kts 251°
2026-05-07 13:05 50.09849 8.83341 3743 ft 222 kts 252°
2026-05-07 13:05 50.09318 8.81089 3453 ft 221 kts 252°
2026-05-07 13:05 50.08787 8.78836 3143 ft 222 kts 251°
2026-05-07 13:06 50.08263 8.76616 2846 ft 215 kts 251°
2026-05-07 13:06 50.07754 8.74466 2551 ft 208 kts 252°
2026-05-07 13:06 50.07271 8.72424 2310 ft 194 kts 251°
2026-05-07 13:06 50.06819 8.70517 2020 ft 182 kts 252°
2026-05-07 13:07 50.06400 8.68749 1779 ft 166 kts 251°
2026-05-07 13:07 50.06021 8.67153 1568 ft 151 kts 251°
2026-05-07 13:07 50.05668 8.65664 1372 ft 143 kts 252°
2026-05-07 13:07 50.05326 8.64223 1169 ft 140 kts 252°
2026-05-07 13:08 50.04995 8.62826 978 ft 137 kts 250°
2026-05-07 13:08 50.04664 8.61437 795 ft 136 kts 249°
2026-05-07 13:08 50.04345 8.60058 603 ft 136 kts 248°
2026-05-07 13:08 50.04017 8.58694 436 ft 135 kts 248°
2026-05-07 13:09 50.03701 8.57381 362 ft 119 kts 249°
2026-05-07 13:09 50.03464 8.56398 354 ft 75 kts 249°
2026-05-07 13:09 50.03325 8.55820 350 ft 39 kts 250°
2026-05-07 13:09 50.03209 8.55547 342 ft 29 kts 224°
2026-05-07 13:10 50.03147 8.55463 343 ft 0 kts 219°
2026-05-07 13:10 50.03140 8.55454 343 ft 3 kts 220°
2026-05-07 13:11 50.03106 8.55431 351 ft 11 kts 185°
2026-05-07 13:11 50.03077 8.55574 345 ft 17 kts 78°
2026-05-07 13:11 50.03114 8.55729 350 ft 15 kts 69°
2026-05-07 13:11 50.03164 8.55937 352 ft 23 kts 69°
2026-05-07 13:12 50.03223 8.56174 353 ft 24 kts 69°
2026-05-07 13:12 50.03282 8.56425 355 ft 25 kts 69°
2026-05-07 13:12 50.03343 8.56681 349 ft 25 kts 69°
2026-05-07 13:12 50.03304 8.56815 358 ft 14 kts 158°
2026-05-07 13:13 50.03218 8.56863 360 ft 12 kts 159°
2026-05-07 13:13 50.03139 8.56909 354 ft 12 kts 159°
2026-05-07 13:13 50.03058 8.56985 357 ft 14 kts 114°
2026-05-07 13:13 50.03021 8.57112 355 ft 12 kts 115°
2026-05-07 13:14 50.02989 8.57222 355 ft 10 kts 115°
2026-05-07 13:14 50.02982 8.57280 353 ft 2 kts 39°
2026-05-07 13:14 50.02985 8.57282 354 ft 0 kts 24°
2026-05-07 13:14 50.03009 8.57296 360 ft 8 kts 20°
2026-05-07 13:15 50.03050 8.57323 360 ft 5 kts 24°
2026-05-07 13:15 50.03069 8.57336 357 ft 0 kts 25°